Flag for U.S.A. Weather past 2 weeks in Escondido, California, U.S.A.

Now
62 °F

Low clouds.


Feels Like: 62 °F
Forecast: 59 / 82 °F
Wind: 3 mph from Northwest

Location: Ramona Airport

Current Time: Aug 21, 2014 at 3:22:47 AM

Latest Report: Aug 21, 2014 at 2:53 AM


Visibility: 7 mi

Pressure: 29.91 "Hg

Humidity: 93%

Dew point: 60 °F

Location of EscondidoLocation

Historic Weather in Escondido — Graph

°F

Escondido temperature yesterday

Maximum temperature yesterday: 82 °F (at 2:53 PM)
Minimum temperature yesterday: 59 °F (at 12:53 AM)
Average temperature yesterday: 68 °F

Past Weeks' High & Low Weather Summary

 TemperatureHumidityPressure
High94 °F (Aug 15, 2:53 PM)100% (Aug 6, 5:58 AM)30.06 "Hg (Aug 6, 5:58 AM)
Low55 °F (Aug 14, 5:56 AM)21% (Aug 17, 11:53 AM)29.78 "Hg (Aug 18, 4:53 PM)
Average72 °F64%29.92 "Hg
* Reported Aug 6 2:53 AM — Aug 21 2:01 AM, Escondido, Weather by CustomWeather, © 2014

Note: Actual official high and low records may vary slightly from our data, if they occured in-between our weather recording intervals... More about our weather records

Advertising

Escondido weather history for previous 24 hours

 ConditionsComfort  
Time TempWeatherWind HumidityBarometerVisibility
2:01 AM
Aug 21
60 °FPassing clouds.3 mph93%29.95 "Hg10 mi
12:53 AM60 °FClear.5 mph90%29.92 "Hg10 mi
11:53 PM
Aug 20
61 °FClear.No wind87%29.92 "Hg10 mi
10:53 PM64 °FClear.No wind81%29.91 "Hg10 mi
9:53 PM63 °FClear.5 mph87%29.91 "Hg10 mi
8:53 PM65 °FClear.6 mph85%29.90 "Hg10 mi
7:53 PM68 °FSunny.8 mph73%29.89 "Hg10 mi
6:53 PM71 °FSunny.8 mph63%29.87 "Hg10 mi
5:53 PM76 °FSunny.14 mph56%29.87 "Hg10 mi
4:53 PM80 °FSunny.9 mph49%29.86 "Hg10 mi
3:53 PM79 °FSunny.10 mph50%29.86 "Hg10 mi
2:53 PM82 °FSunny.12 mph46%29.87 "Hg10 mi
1:53 PM76 °FSunny.No wind54%29.90 "Hg10 mi
12:53 PM74 °FBroken clouds.8 mph60%29.93 "Hg10 mi
11:53 AM71 °FPassing clouds.9 mph61%29.93 "Hg10 mi
10:53 AM68 °FSunny.9 mph68%29.94 "Hg10 mi
9:53 AM70 °FSunny.6 mph66%29.93 "Hg10 mi
8:53 AM66 °FSunny.6 mph73%29.93 "Hg10 mi
7:53 AM64 °FSunny.No wind81%29.90 "Hg8 mi
6:53 AM62 °FLow clouds.3 mph83%29.89 "Hg7 mi
5:53 AM62 °FLow clouds.No wind83%29.88 "Hg9 mi
4:53 AM62 °FLow clouds.No wind83%29.87 "Hg10 mi
3:53 AM62 °FLow clouds.No wind86%29.87 "Hg10 mi
Weather by CustomWeather, © 2014

See weather overviewHow to use our weather pages